Regional Weather Roundup
Issued by NWS Charleston, WV

Home | Current Version | Previous Version | Graphics & Text | Print | Product List | Glossary On
Versions: 1 2 3 4 5 6 7 8 9 10 11 12 13 14 15 16 17 18 19 20 21 22 23 24 25 26 27 28 29 30 31 32 33 34 35 36 37 38 39 40 41 42 43 44 45 46 47 48 49
000
ASUS41 KRLX 021210
RWRRLX
West Virginia Regional Weather Roundup
National Weather Service Charleston WV
800 AM EDT TUE JUN 02 2015

Note: "fair" indicates few or no clouds below 12,000 feet with no
significant weather and/or obstructions to visibility.

WVZ003-021300-
Northern Panhandle of West Virginia

CITY           SKY/WX    TMP DP  RH WIND       PRES   REMARKS
WHEELING       CLOUDY    53  49  86 N5        30.12R
$$

WVZ009-021300-
Northwest West Virginia

CITY           SKY/WX    TMP DP  RH WIND       PRES   REMARKS
PARKERSBURG    CLOUDY    54  51  90 N5        30.14R
$$

WVZ006-021300-
Western West Virginia

CITY           SKY/WX    TMP DP  RH WIND       PRES   REMARKS
HUNTINGTON     CLOUDY    53  53 100 N5        30.10S FOG
$$

WVZ015-021300-
West Central West Virginia

CITY           SKY/WX    TMP DP  RH WIND       PRES   REMARKS
CHARLESTON     DRIZZLE   55  53  93 CALM      30.10R FOG
$$

WVZ022-031-021300-
North Central West Virginia

CITY           SKY/WX    TMP DP  RH WIND       PRES   REMARKS
CLARKSBURG     CLOUDY    55  53  93 N5        30.09R
MORGANTOWN     CLOUDY    55  51  86 CALM      30.09R
$$

WVZ025-035-042-045-021300-
Southern West Virginia

CITY           SKY/WX    TMP DP  RH WIND       PRES   REMARKS
BECKLEY        FOG       56  55  97 NW3       30.10R VSB 1/4
LOGAN          FOG       55  55 100 CALM      30.07R VSB<1/4
BLUEFIELD      FOG       62  58  86 W6        30.11R VSB 1/2
LEWISBURG      CLOUDY    63  58  86 CALM      30.08R
$$

WVZ047-021300-
Northern Mountains of West Virginia

CITY           SKY/WX    TMP DP  RH WIND       PRES   REMARKS
ELKINS         CLOUDY    56  53  90 CALM      30.09R FOG
$$

WVZ052-021300-
Eastern Panhandle of West Virginia

CITY           SKY/WX    TMP DP  RH WIND       PRES   REMARKS
MARTINSBURG    CLOUDY    60  57  89 N12       30.07R
PETERSBURG     CLOUDY    57  56  97 CALM      30.09R FOG
$$


USA.gov is the U.S. government's official web portal to all federal, state and local government web resources and services.